Location: Newark
(43.4306°N, 0.3089°E)
Time: 10:02:19
(UTC+00:00)

SR - All Passes

Search period start: 22 August 2019 00:00
Search period end: 01 September 2019 00:00
Orbit: 578 x 878 km, 66.7° (Epoch: 21 August)

Date Brightness Start Highest point End Pass type
(mag) Time Alt. Az. Time Alt. Az. Time Alt. Az.
22 Aug - 11:34:58 10° SSE 11:38:29 23° ESE 11:42:11 10° NE daylight
22 Aug - 13:16:01 10° WSW 13:20:14 40° NW 13:24:49 10° NNE daylight
22 Aug - 20:12:47 10° NNW 20:17:41 32° NE 20:22:50 10° ESE visible
22 Aug - 21:54:37 10° NW 21:59:57 48° WSW 22:05:32 10° S visible
23 Aug - 10:48:20 10° ESE 10:49:19 11° ESE 10:50:19 10° E daylight
23 Aug - 12:26:02 10° SSW 12:30:28 82° WNW 12:35:19 10° NNE daylight
23 Aug - 14:10:49 10° WNW 14:13:26 15° NW 14:16:10 10° N daylight
23 Aug - 19:23:40 10° N 19:27:38 20° NE 19:31:46 10° E visible
23 Aug - 21:04:49 10° NNW 21:10:24 88° WSW 21:16:16 10° SSE visible
23 Aug - 22:48:59 10° WNW 22:51:48 14° WSW 22:54:40 10° SW visible
24 Aug - 11:36:43 10° S 11:40:56 47° ESE 11:45:31 10° NE daylight
24 Aug - 13:19:33 10° W 13:23:16 24° NW 13:27:15 10° N daylight
24 Aug - 18:34:58 10° N 18:37:23 13° NNE 18:39:52 10° ENE daylight
24 Aug - 20:15:17 10° NNW 20:20:40 53° NE 20:26:22 10° SE visible
24 Aug - 21:57:53 10° NW 22:02:32 27° WSW 22:07:21 10° SSW visible
25 Aug - 10:48:12 10° SSE 10:51:37 22° ESE 10:55:14 10° ENE daylight
25 Aug - 12:29:02 10° SW 12:33:19 43° NW 12:37:58 10° NNE daylight
25 Aug - 19:25:56 10° NNW 19:30:47 31° NE 19:35:53 10° ESE visible
25 Aug - 21:07:42 10° NW 21:13:07 51° WSW 21:18:44 10° S visible
26 Aug - 11:39:08 10° SSW 11:43:34 87° WNW 11:48:27 10° NNE daylight
26 Aug - 13:23:42 10° WNW 13:26:29 15° NW 13:29:24 10° N daylight
26 Aug - 18:36:49 10° N 18:40:43 19° NE 18:44:46 10° E daylight
26 Aug - 20:17:56 10° NNW 20:23:31 88° NE 20:29:24 10° SSE visible
26 Aug - 22:01:52 10° WNW 22:04:58 15° WSW 22:08:07 10° SW visible
27 Aug - 10:49:52 10° S 10:54:03 44° ESE 10:58:37 10° NE daylight
27 Aug - 12:32:31 10° WSW 12:36:20 25° NW 12:40:26 10° NNE daylight
27 Aug - 17:48:10 10° N 17:50:27 12° NNE 17:52:47 10° ENE daylight
27 Aug - 19:28:24 10° NNW 19:33:48 50° NE 19:39:27 10° SE visible
27 Aug - 21:10:55 10° NW 21:15:41 29° WSW 21:20:38 10° SSW visible
28 Aug - 10:01:26 10° SSE 10:04:45 21° ESE 10:08:16 10° ENE daylight
28 Aug - 11:42:04 10° SW 11:46:24 46° NW 11:51:08 10° NNE daylight
28 Aug - 13:29:19 10° NW 13:29:52 10° NNW 13:30:26 10° NNW daylight
28 Aug - 18:39:04 10° NNW 18:43:53 30° NE 18:48:56 10° ESE daylight
28 Aug - 20:20:48 10° NW 20:26:15 54° WSW 20:31:57 10° S visible
29 Aug - 10:52:13 10° SSW 10:56:41 88° ESE 11:01:34 10° NNE daylight
29 Aug - 12:36:36 10° WNW 12:39:33 16° NW 12:42:39 10° N daylight
29 Aug - 17:49:58 10° N 17:53:48 19° NE 17:57:46 10° E daylight
29 Aug - 19:31:02 10° NNW 19:36:39 84° ENE 19:42:33 10° SSE visible
29 Aug - 21:14:47 10° WNW 21:18:08 16° WSW 21:21:33 10° SW visible
30 Aug - 10:03:00 10° S 10:07:11 41° ESE 10:11:43 10° NE daylight
30 Aug - 11:45:30 10° WSW 11:49:25 27° NW 11:53:37 10° NNE daylight
30 Aug - 17:01:23 10° N 17:03:30 12° NNE 17:05:41 10° NE daylight
30 Aug - 18:41:31 10° NNW 18:46:55 48° NE 18:52:33 10° SE daylight
30 Aug - 20:23:57 10° NW 20:28:51 30° WSW 20:33:53 10° S visible
31 Aug - 09:14:40 10° SSE 09:17:53 20° ESE 09:21:18 10° ENE daylight
31 Aug - 10:55:06 10° SW 10:59:29 49° NW 11:04:17 10° NNE daylight
31 Aug - 12:41:45 10° NW 12:42:55 11° NNW 12:44:06 10° NNW daylight
31 Aug - 17:52:12 10° NNW 17:56:59 29° NE 18:01:58 10° ESE daylight
31 Aug - 19:33:53 10° NW 19:39:24 57° WSW 19:45:08 10° SSE visible
